Wind_Speed
4 4 5 6 5 8 13 8 8 9 8 10 10 10 12 15 10 5 10 16 12 8 4 4 4 2 3 4 5 5 5 4 3 3 3 4 4 3 3 4 4 3 3 2 3 3 4 3 4
4 5 6 7 2 10 11 7 8 8 7 8 8 6 8 15 12 8 9 12 12 9 4 2 2 2 1 4 5 5 5 4 3 2 1 2 2 3 3 3 3 3 3 3 2 1 2 2 3
5 4 5 2 5 14 10 5 5 6 9 8 5 6 2 6 4 4 5 9 12 11 8 3 2 2 1 2 4 5 6 5 4 3 2 1 0 1 1 1 1 1 1 0 0 0 1 1 2
5 6 6 3 8 8 7 6 6 3 5 9 6 8 6 1 1 2 6 10 14 12 11 7 3 3 3 4 6 7 8 7 7 6 5 4 3 2 1 1 2 2 2 3 3 3 3 3 3
5 5 2 4 7 8 6 4 5 5 3 6 7 2 4 2 3 4 7 8 12 11 10 8 6 5 7 7 7 9 9 9 9 9 8 7 6 6 5 4 3 3 4 6 6 5 6 5 5
4 2 2 5 6 6 5 4 4 4 4 5 2 1 10 3 5 5 7 7 10 11 11 10 8 7 6 7 10 11 11 11 12 12 11 11 11 10 9 8 7 6 6 7 7 7 8 7 8
3 1 1 3 5 4 1 0 2 3 2 6 1 2 6 4 7 7 9 10 9 11 12 11 9 8 8 7 6 8 11 14 14 14 15 15 15 15 14 13 12 11 10 10 9 8 9 10 10
0 1 2 2 4 4 3 2 5 3 10 7 4 6 12 9 11 12 9 10 11 10 11 4 6 8 7 8 8 7 8 9 12 15 17 18 19 19 18 18 17 17 16 15 13 12 12 12 13
2 1 2 1 3 3 3 1 9 8 12 11 9 6 7 7 7 7 5 6 10 11 7 7 6 6 11 12 11 9 10 9 10 11 13 16 19 21 21 21 21 21 21 21 20 17 17 16 15
3 4 2 4 4 3 8 7 10 6 12 13 9 6 5 5 4 4 6 10 13 16 16 15 15 12 12 11 15 9 14 12 13 14 15 14 15 17 21 23 24 24 24 25 25 25 22 22 20
5 3 8 9 8 10 10 12 11 11 15 12 10 8 6 5 4 4 5 9 13 16 19 18 18 17 17 16 13 14 15 14 13 12 14 19 18 18 18 20 22 25 27 27 28 28 29 27 26
4 10 11 13 13 13 12 13 12 11 10 10 11 12 11 10 10 8 9 10 13 14 16 17 18 18 20 20 19 19 19 19 19 19 20 20 20 22 21 21 22 22 23 24 29 30 31 32 31
4 15 15 15 13 14 14 14 13 13 12 12 13 14 15 15 13 14 14 15 16 17 17 17 18 19 20 23 23 24 25 25 23 25 25 25 24 24 24 26 27 27 26 26 26 26 29 32 34
15 16 15 15 15 15 16 17 16 15 13 14 16 17 17 16 19 16 16 17 16 17 18 18 20 21 22 23 24 25 26 28 30 31 31 31 31 30 30 30 30 30 31 32 31 30 30 29 29
14 9 13 15 17 17 15 18 18 14 14 17 18 18 19 20 18 17 15 13 13 14 14 14 13 14 16 18 20 21 22 22 24 28 33 35 36 36 36 36 35 35 36 37 37 37 35 33 31
11 11 11 14 14 17 14 11 19 18 16 17 20 23 18 18 16 13 11 11 11 11 11 11 11 12 13 14 15 17 19 21 23 25 27 28 29 31 35 40 42 41 43 41 40 39 38 38 37
11 13 10 12 17 15 16 11 23 19 20 22 20 20 19 16 14 12 11 10 10 10 11 13 14 15 17 19 20 20 21 22 23 25 26 28 30 30 32 33 35 37 42 47 47 47 47 45 42
11 10 12 12 14 14 14 17 28 23 20 19 20 19 18 16 13 12 11 10 11 12 13 15 16 18 20 22 23 24 26 28 30 31 32 33 35 35 37 38 39 39 39 39 42 46 48 51 49
18 14 15 12 20 18 18 19 25 21 21 21 19 18 16 15 13 13 12 12 13 14 15 17 19 20 22 23 25 27 29 31 32 34 34 35 37 38 39 40 43 45 46 46 44 44 45 46 49
12 11 11 13 20 16 12 20 18 27 22 21 19 17 16 16 14 13 13 14 15 17 18 20 23 25 28 28 29 30 31 31 33 34 34 34 35 36 38 40 42 44 46 48 51 51 50 49 47
9 11 11 12 14 18 18 21 15 21 16 15 16 16 17 14 13 14 15 17 16 18 22 26 29 31 34 36 37 37 39 40 41 41 42 43 43 43 43 43 42 42 44 47 49 52 54 55 51
10 15 14 10 9 9 10 9 10 15 13 12 12 15 14 14 14 15 16 17 19 24 28 30 32 35 38 38 40 42 43 43 43 43 44 46 48 50 50 49 49 47 45 45 46 50 52 54 58
9 14 13 13 13 15 15 7 7 12 12 10 11 11 12 14 15 16 15 19 24 26 27 30 35 38 38 40 43 45 46 47 48 48 49 51 51 50 51 51 51 51 51 48 46 46 50 53 54
15 12 13 10 7 9 11 9 5 6 8 9 11 12 14 14 15 14 18 25 29 31 32 34 39 40 42 44 45 47 48 49 51 52 53 53 53 53 52 52 52 53 52 49 48 46 46 49 52
11 5 5 7 5 2 5 7 12 8 11 10 10 11 11 15 14 15 25 30 30 32 35 39 42 44 45 47 48 49 50 51 53 54 55 54 54 54 52 51 51 52 51 52 51 46 46 44 48
6 7 9 6 6 7 5 8 5 9 8 9 12 12 16 17 17 23 30 31 33 36 39 42 46 47 49 50 50 51 52 53 54 53 53 52 51 51 51 51 51 52 52 52 52 50 47 46 44
5 4 9 8 12 7 8 6 13 11 3 14 12 15 19 18 19 31 31 33 35 38 42 46 48 50 51 50 51 52 53 53 53 52 50 50 49 48 48 49 51 51 51 51 47 47 48 43 44
13 9 5 5 5 8 7 11 14 12 12 15 16 18 19 18 29 30 32 34 38 42 45 49 50 51 51 51 53 54 54 53 52 51 49 48 49 49 50 51 52 50 51 50 45 43 43 41 43
7 7 7 8 8 7 10 7 8 8 13 13 17 18 20 25 31 30 31 36 40 44 48 49 51 51 51 52 54 55 54 52 50 49 48 48 49 49 49 49 50 49 46 44 41 34 37 38 38
14 11 10 9 7 11 10 24 15 13 15 18 22 14 16 21 28 31 36 39 43 47 48 50 51 51 52 54 55 55 53 50 48 47 47 46 47 47 48 47 47 42 41 45 39 33 37 38 35
Wind_Direction
87 99 82 101 84 97 82 75 76 67 49 49 59 69 54 54 49 81 19 14 12 9 6 27 40 80 159 173 174 165 159 146 134 108 76 65 58 61 68 60 73 70 81 105 112 111 113 130 119
69 80 79 88 271 111 82 84 66 53 46 43 50 74 61 50 47 40 26 4 11 13 6 359 21 24 153 178 178 177 178 173 169 141 94 73 64 62 58 61 47 59 55 54 54 72 108 146 167
72 108 60 77 25 60 97 81 59 67 45 48 50 61 83 74 68 53 13 352 2 13 8 343 320 349 329 240 215 201 201 200 202 202 198 193 55 38 47 68 57 14 8 53 104 320 311 268 176
76 95 66 78 94 81 96 73 63 61 32 40 53 3 354 35 298 338 343 341 350 4 5 4 305 255 242 230 227 222 218 215 218 219 219 219 222 237 259 276 280 274 268 272 267 262 257 269 272
80 89 162 119 104 95 87 90 50 31 23 18 55 76 301 282 257 284 322 327 332 348 354 350 339 300 262 247 242 238 235 233 237 239 237 234 233 231 231 231 240 242 248 258 260 260 270 271 274
70 101 199 143 132 112 79 69 37 27 7 352 3 100 299 243 248 260 298 295 310 323 334 339 337 328 308 276 260 255 253 250 248 249 249 247 245 244 243 241 241 243 244 248 254 257 262 266 266
124 348 140 161 153 144 133 53 3 7 5 318 315 168 295 241 235 253 284 280 285 305 317 326 335 337 329 316 294 272 262 259 258 257 257 256 253 251 249 248 249 249 248 249 252 253 255 259 259
214 101 196 164 185 189 239 301 301 286 303 303 291 210 219 269 265 272 267 272 271 283 298 323 325 332 326 318 313 302 289 279 269 262 259 258 257 255 255 254 254 254 254 254 253 254 256 251 255
265 269 222 134 160 225 265 297 305 297 293 304 303 284 265 260 254 250 248 246 252 269 269 290 298 286 296 303 295 295 296 295 291 280 271 266 264 262 261 259 257 257 259 259 257 254 257 258 258
270 279 212 246 270 234 293 287 294 304 298 306 302 299 280 254 245 245 246 257 260 261 264 274 284 275 267 263 266 263 280 284 304 301 288 277 274 270 265 262 262 261 260 261 263 262 258 259 257
274 249 278 283 288 286 291 294 296 284 291 295 295 292 279 260 254 264 268 264 259 257 260 265 269 272 276 272 269 269 267 271 261 262 279 295 284 279 275 274 269 266 264 264 262 263 264 261 259
292 271 281 291 289 286 289 293 292 284 281 278 276 275 275 275 276 277 271 271 271 265 262 262 261 261 263 262 262 264 263 263 264 263 266 264 270 279 280 278 276 275 274 270 267 265 265 265 264
267 284 287 287 284 286 290 292 292 284 282 275 272 272 278 281 278 284 273 276 272 262 261 262 264 264 264 266 264 265 267 268 266 266 268 267 266 268 272 275 276 281 279 277 275 273 271 267 266
281 283 284 283 285 287 289 289 285 280 278 275 274 279 281 283 289 284 277 278 267 263 263 264 267 269 270 269 269 267 268 267 265 264 264 265 268 267 267 267 272 274 278 279 279 278 277 275 273
274 282 281 281 283 283 286 286 276 278 277 281 282 283 285 289 288 287 285 284 282 278 274 274 274 274 275 274 272 272 272 273 271 268 267 267 269 268 268 267 266 267 268 271 277 279 281 279 276
273 265 257 265 284 281 276 273 280 280 282 281 282 285 282 285 284 282 281 280 279 279 275 275 277 278 279 280 278 277 277 278 277 277 277 276 275 275 273 269 266 266 266 268 267 267 271 274 271
259 263 245 270 277 248 271 268 279 275 282 280 276 277 284 283 279 279 278 275 280 287 295 298 302 304 303 301 298 295 290 286 283 282 282 281 279 279 279 278 276 272 269 267 267 266 267 267 270
289 263 271 264 273 269 252 264 271 281 275 271 269 271 278 276 274 274 275 281 289 294 299 303 306 307 307 306 304 303 301 299 299 297 295 291 289 287 284 281 279 277 274 270 269 267 264 263 263
270 272 268 260 256 272 273 258 265 272 270 267 265 265 261 260 268 268 275 282 291 296 302 306 306 306 305 305 305 304 302 301 301 300 298 295 293 290 285 280 278 278 277 274 270 267 266 264 261
267 264 268 263 274 280 270 270 261 275 273 260 258 253 250 254 266 271 280 286 294 299 304 307 312 315 314 311 308 305 302 300 298 296 296 294 292 290 287 285 284 281 275 271 270 269 266 264 262
261 258 267 268 280 292 298 294 244 262 268 257 249 248 247 254 258 269 284 293 297 305 314 318 319 318 316 314 312 311 309 307 306 304 302 299 297 296 295 293 289 283 278 275 273 268 264 263 260
263 252 273 261 296 289 290 291 260 265 265 257 249 248 251 254 260 269 278 290 309 317 318 318 317 316 314 313 313 311 308 306 305 304 302 302 301 298 295 293 292 289 284 278 273 271 269 264 259
254 262 272 274 276 288 262 251 217 256 267 273 269 257 249 259 263 271 288 306 312 312 311 311 313 314 313 313 312 311 310 309 308 306 305 303 301 299 297 296 293 289 287 282 274 269 267 268 267
264 287 289 278 265 254 242 216 231 234 259 268 265 255 255 265 269 284 303 311 310 308 308 310 314 314 314 313 312 311 310 309 308 307 306 304 302 301 299 297 294 292 289 284 281 275 268 264 265
265 274 248 217 204 306 164 231 252 256 280 265 270 265 283 289 281 300 313 309 305 305 305 308 312 312 314 314 312 311 310 310 309 308 306 303 301 299 297 294 292 289 287 286 285 282 276 267 263
227 229 288 303 324 334 219 243 228 253 282 296 309 273 300 302 288 308 311 306 304 304 306 308 312 312 315 313 312 312 312 310 308 306 303 300 297 295 294 291 288 286 285 283 283 283 277 274 264
236 215 247 287 271 265 251 254 284 291 265 318 316 302 302 291 290 307 305 303 302 303 307 310 312 313 314 312 311 311 310 309 307 304 300 297 296 294 291 287 283 281 280 279 278 278 276 269 268
221 237 269 222 277 286 280 279 273 270 277 313 320 309 300 282 300 304 305 305 306 308 309 310 311 312 312 313 312 311 311 309 306 303 299 296 294 292 288 284 281 279 277 278 277 275 269 270 262
239 239 237 255 256 294 300 285 318 295 294 287 310 305 297 295 304 309 310 310 309 307 309 310 312 313 313 313 312 311 310 308 305 302 299 297 294 293 290 284 282 280 280 276 276 265 261 264 266
254 232 238 258 274 256 273 284 282 280 289 292 305 285 273 276 295 309 313 311 310 309 309 311 312 313 314 313 312 311 310 308 304 302 301 299 299 296 290 283 277 275 271 272 272 254 258 256 256
Height
3184 3184 3184 3185 3187 3185 3186 3190 3189 3189 3189 3189 3188 3188 3188 3186 3184 3189 3187 3184 3182 3180 3179 3178 3177 3176 3176 3176 3175 3176 3176 3175 3175 3175 3174 3174 3174 3174 3173 3172 3171 3171 3171 3170 3170 3169 3169 3168 3168
3185 3185 3185 3185 3185 3185 3189 3190 3191 3191 3190 3190 3189 3190 3189 3188 3188 3186 3185 3184 3182 3180 3179 3178 3178 3177 3177 3176 3176 3176 3176 3176 3176 3176 3175 3175 3174 3174 3174 3173 3173 3173 3172 3172 3171 3171 3170 3169 3169
3186 3186 3187 3187 3185 3186 3190 3191 3191 3192 3191 3191 3191 3190 3187 3187 3187 3186 3185 3184 3182 3181 3180 3179 3179 3178 3178 3178 3177 3177 3177 3176 3176 3176 3175 3175 3174 3174 3174 3174 3173 3173 3173 3172 3171 3171 3171 3170 3170
3187 3188 3189 3188 3190 3191 3192 3192 3192 3193 3192 3191 3191 3190 3188 3187 3187 3186 3185 3184 3183 3182 3180 3179 3178 3178 3177 3176 3176 3176 3176 3175 3175 3175 3174 3174 3174 3173 3173 3173 3173 3173 3173 3172 3172 3171 3170 3170 3170
3187 3188 3189 3189 3191 3192 3191 3191 3192 3192 3192 3191 3192 3191 3187 3187 3187 3187 3186 3185 3183 3182 3181 3179 3178 3177 3176 3176 3175 3175 3175 3175 3175 3174 3174 3173 3173 3172 3172 3172 3172 3171 3171 3171 3171 3171 3170 3170 3170
3188 3188 3188 3188 3191 3192 3191 3192 3192 3192 3192 3189 3191 3192 3187 3186 3186 3186 3186 3185 3184 3182 3181 3179 3178 3177 3176 3175 3175 3174 3174 3174 3174 3173 3173 3173 3172 3172 3171 3171 3170 3170 3170 3169 3169 3170 3169 3169 3169
3188 3189 3189 3190 3192 3191 3190 3191 3190 3191 3190 3188 3188 3192 3187 3185 3185 3185 3185 3184 3183 3182 3181 3180 3177 3177 3176 3175 3174 3173 3173 3172 3172 3172 3172 3172 3171 3171 3170 3170 3170 3169 3169 3168 3168 3167 3167 3167 3167
3188 3189 3189 3190 3191 3191 3189 3189 3188 3188 3186 3186 3186 3186 3186 3185 3184 3184 3183 3183 3182 3181 3180 3181 3179 3179 3176 3175 3174 3173 3172 3171 3171 3170 3170 3169 3169 3169 3169 3169 3168 3168 3167 3166 3166 3166 3165 3164 3164
3188 3189 3188 3190 3190 3189 3188 3189 3186 3186 3183 3184 3184 3184 3183 3182 3182 3182 3182 3181 3180 3179 3179 3179 3179 3181 3177 3176 3174 3172 3171 3170 3170 3169 3168 3167 3166 3166 3166 3166 3166 3165 3165 3164 3164 3164 3163 3163 3162
3187 3188 3186 3187 3188 3187 3187 3186 3185 3185 3182 3181 3181 3181 3181 3180 3180 3180 3179 3178 3178 3177 3176 3176 3176 3175 3175 3174 3173 3172 3170 3169 3168 3168 3166 3165 3164 3163 3162 3162 3162 3162 3162 3161 3161 3161 3161 3160 3159
3186 3186 3185 3185 3185 3185 3185 3183 3183 3182 3180 3179 3179 3179 3179 3179 3178 3178 3177 3176 3174 3174 3174 3174 3174 3173 3172 3170 3170 3169 3167 3167 3167 3166 3167 3164 3162 3160 3159 3158 3158 3158 3158 3157 3157 3156 3156 3156 3156
3186 3183 3183 3183 3183 3183 3182 3181 3181 3180 3180 3179 3178 3177 3177 3176 3175 3175 3174 3173 3172 3171 3171 3171 3170 3169 3168 3167 3166 3166 3164 3164 3164 3163 3161 3160 3160 3157 3156 3155 3154 3153 3152 3152 3152 3152 3152 3152 3151
3184 3181 3181 3180 3180 3180 3179 3178 3177 3177 3177 3176 3176 3175 3174 3173 3172 3171 3171 3170 3169 3168 3168 3167 3167 3166 3165 3163 3163 3162 3162 3161 3160 3159 3158 3157 3156 3153 3152 3151 3149 3149 3148 3148 3147 3147 3146 3146 3146
3181 3179 3179 3178 3178 3177 3177 3176 3175 3175 3174 3173 3173 3172 3171 3170 3168 3167 3166 3166 3165 3165 3164 3164 3163 3162 3160 3159 3159 3158 3157 3156 3155 3154 3153 3152 3151 3150 3149 3148 3146 3144 3143 3141 3141 3141 3141 3140 3140
3179 3178 3176 3176 3175 3174 3174 3173 3171 3171 3171 3170 3169 3168 3167 3166 3164 3163 3162 3161 3161 3161 3160 3160 3159 3158 3157 3155 3154 3153 3152 3151 3149 3148 3147 3146 3145 3144 3143 3142 3142 3139 3137 3135 3134 3134 3134 3134 3134
3178 3177 3177 3173 3173 3171 3172 3173 3168 3168 3167 3166 3165 3163 3162 3162 3161 3159 3159 3158 3158 3157 3157 3156 3156 3154 3153 3152 3150 3149 3147 3146 3144 3142 3141 3140 3138 3137 3135 3134 3134 3133 3132 3130 3129 3128 3126 3126 3127
3175 3174 3174 3172 3170 3169 3168 3169 3163 3164 3163 3162 3161 3158 3158 3157 3157 3156 3156 3155 3154 3154 3153 3152 3151 3149 3148 3146 3144 3143 3142 3141 3139 3137 3135 3133 3131 3130 3128 3127 3125 3124 3123 3122 3121 3120 3119 3118 3117
3172 3171 3172 3171 3167 3165 3166 3163 3158 3159 3158 3157 3156 3155 3154 3153 3153 3153 3152 3152 3151 3150 3149 3148 3147 3145 3143 3141 3140 3138 3135 3133 3131 3129 3127 3126 3124 3122 3120 3119 3116 3114 3113 3113 3111 3110 3110 3109 3110
3169 3168 3168 3169 3163 3163 3161 3159 3155 3153 3153 3152 3151 3151 3150 3150 3149 3149 3149 3148 3147 3147 3146 3144 3143 3141 3139 3137 3135 3132 3129 3126 3124 3120 3119 3116 3113 3111 3109 3108 3106 3104 3102 3101 3100 3100 3098 3098 3098
3166 3166 3165 3164 3161 3159 3158 3154 3152 3145 3147 3147 3147 3147 3147 3146 3146 3146 3145 3145 3144 3143 3142 3140 3137 3135 3132 3130 3128 3125 3123 3121 3118 3115 3113 3110 3107 3104 3101 3097 3095 3093 3091 3089 3088 3087 3087 3087 3087
3163 3163 3163 3163 3158 3155 3153 3145 3143 3143 3141 3141 3142 3143 3143 3144 3143 3142 3142 3141 3140 3138 3135 3133 3130 3128 3125 3122 3119 3116 3113 3110 3107 3104 3101 3098 3095 3093 3090 3087 3084 3082 3079 3077 3075 3074 3073 3073 3075
3161 3158 3158 3157 3158 3157 3153 3147 3141 3139 3138 3138 3139 3139 3140 3140 3140 3140 3139 3137 3134 3132 3129 3127 3124 3122 3119 3116 3112 3109 3105 3102 3099 3095 3091 3087 3084 3080 3077 3073 3071 3069 3066 3064 3062 3060 3058 3057 3059
3158 3155 3155 3154 3154 3154 3150 3151 3139 3137 3136 3136 3137 3137 3137 3137 3137 3136 3134 3132 3129 3127 3125 3123 3120 3117 3114 3110 3106 3100 3095 3092 3087 3084 3080 3076 3072 3068 3064 3060 3057 3053 3051 3050 3048 3048 3047 3045 3044
3153 3153 3152 3151 3152 3149 3143 3146 3135 3135 3135 3135 3135 3134 3135 3134 3133 3132 3130 3128 3125 3121 3119 3116 3113 3110 3106 3102 3097 3092 3087 3082 3077 3072 3067 3062 3057 3053 3050 3046 3042 3039 3036 3035 3033 3034 3034 3034 3032
3152 3154 3150 3148 3147 3138 3142 3143 3136 3134 3132 3133 3132 3131 3131 3130 3128 3127 3126 3123 3120 3117 3114 3111 3107 3103 3098 3093 3088 3082 3077 3072 3066 3060 3054 3049 3044 3040 3037 3034 3030 3026 3024 3021 3020 3020 3018 3020 3020
3152 3153 3150 3143 3135 3135 3139 3136 3133 3130 3130 3130 3130 3128 3127 3126 3125 3124 3121 3118 3115 3111 3108 3104 3099 3094 3089 3083 3078 3072 3066 3061 3055 3049 3043 3037 3033 3028 3024 3020 3017 3014 3011 3009 3007 3006 3005 3004 3007
3149 3150 3149 3148 3142 3140 3131 3131 3129 3128 3127 3127 3126 3125 3123 3122 3121 3119 3116 3113 3109 3106 3101 3095 3090 3085 3079 3074 3068 3062 3056 3049 3042 3036 3030 3024 3020 3015 3011 3007 3003 2999 2996 2995 2994 2992 2991 2993 2993
3146 3147 3149 3146 3140 3130 3124 3126 3126 3124 3123 3123 3122 3121 3119 3118 3117 3113 3110 3106 3102 3097 3092 3086 3081 3075 3069 3063 3056 3049 3043 3035 3028 3022 3016 3011 3006 3002 2997 2993 2989 2986 2982 2980 2979 2978 2978 2979 2981
3144 3145 3145 3144 3142 3134 3128 3125 3124 3123 3122 3119 3118 3116 3114 3111 3108 3106 3103 3099 3094 3089 3083 3077 3071 3064 3059 3052 3045 3037 3030 3023 3016 3009 3003 2998 2992 2987 2982 2977 2973 2970 2969 2967 2966 2967 2968 2969 2969
3140 3141 3142 3142 3138 3136 3134 3125 3121 3120 3119 3117 3116 3114 3111 3107 3103 3099 3095 3091 3086 3080 3074 3068 3061 3054 3048 3040 3032 3024 3017 3010 3003 2996 2990 2984 2977 2972 2967 2962 2959 2957 2957 2954 2954 2955 2957 2959 2959